CW0539 Weather Reports


time (UTC)temp
C
wind
direction
speed
KPH
gust
KPH
rain 1hr
cm
rain 24hr
cm
rain mn
cm
humidity
%
barometer
mb
20191024042832 10 89 3.2 6.4 0.00 0.00 0.00 93 1007.1
20191024042334 10 100 3.2 6.4 0.00 0.00 0.00 93 1007.1
20191024041832 10 93 3.2 4.8 0.00 0.00 0.00 92 1007.2
20191024041328 10 93 1.6 4.8 0.00 0.00 0.00 92 1007.0
20191024040829 10 93 0.0 4.8 0.00 0.00 0.00 92 1007.1
20191024040329 10 93 0.0 4.8 0.00 0.00 0.00 92 1007.1
20191024035826 10 93 1.6 3.2 0.00 0.00 0.00 93 1007.2
20191024035328 10 93 1.6 1.6 0.00 0.00 0.00 93 1007.0
20191024034826 10 93 0.0 3.2 0.00 0.00 0.00 92 1007.0
20191024034328 11 93 1.6 3.2 0.00 0.00 0.00 92 1006.9
20191024033828 11 93 1.6 3.2 0.00 0.00 0.00 93 1007.0
20191024033327 11 93 0.0 3.2 0.00 0.00 0.00 93 1007.1
20191024032825 11 93 0.0 3.2 0.00 0.00 0.00 93 1007.1
20191024032326 11 93 0.0 4.8 0.00 0.00 0.00 93 1007.3
20191024031826 11 93 1.6 6.4 0.00 0.00 0.00 93 1007.3
20191024031326 11 94 3.2 6.4 0.00 0.00 0.00 93 1007.4
20191024030826 11 78 3.2 6.4 0.00 0.00 0.00 93 1007.5
20191024030324 11 100 3.2 6.4 0.00 0.00 0.00 93 1007.4
20191024025825 11 100 3.2 6.4 0.00 0.00 0.00 93 1007.5
20191024025326 11 92 1.6 4.8 0.00 0.00 0.00 93 1007.6
20191024024827 11 92 3.2 6.4 0.00 0.00 0.00 93 1007.5
20191024024325 11 142 3.2 6.4 0.00 0.00 0.00 93 1007.6
20191024023825 11 94 3.2 6.4 0.00 0.00 0.00 93 1007.6
20191024023325 11 94 3.2 8.0 0.00 0.00 0.00 93 1007.5
20191024022826 11 109 3.2 8.0 0.00 0.00 0.00 93 1007.7
20191024022326 11 97 4.8 8.0 0.00 0.00 0.00 93 1007.7
20191024021823 11 113 3.2 6.4 0.00 0.00 0.00 93 1007.8
20191024021323 11 113 1.6 9.7 0.00 0.00 0.00 93 1007.8
20191024020825 11 83 4.8 9.7 0.00 0.00 0.00 93 1007.8
20191024020325 11 145 3.2 8.0 0.00 0.00 0.00 93 1007.8
20191024015823 11 103 3.2 9.7 0.00 0.00 0.00 93 1007.8
20191024015323 11 128 3.2 11.3 0.00 0.00 0.00 93 1007.6
20191024014823 11 100 6.4 11.3 0.00 0.00 0.00 93 1007.5
20191024014323 11 79 4.8 11.3 0.00 0.00 0.00 92 1007.6
20191024013823 11 109 4.8 9.7 0.00 0.00 0.00 92 1007.8
20191024013323 11 83 6.4 9.7 0.00 0.00 0.00 92 1007.7
20191024012823 12 68 4.8 9.7 0.00 0.00 0.00 92 1007.8
20191024012325 12 93 6.4 9.7 0.00 0.00 0.00 92 1007.8
20191024011823 12 86 3.2 6.4 0.00 0.00 0.00 93 1007.9
20191024011322 12 78 3.2 6.4 0.00 0.00 0.00 93 1008.1
20191024010823 12 82 3.2 6.4 0.00 0.00 0.00 93 1008.0
20191024010321 12 83 3.2 9.7 0.00 0.00 0.00 93 1008.2
20191024005822 12 79 4.8 9.7 0.00 0.00 0.00 93 1008.4
20191024005323 12 99 6.4 9.7 0.00 0.00 0.00 93 1008.4
20191024004822 12 85 4.8 11.3 0.00 0.00 0.00 93 1008.3
20191024004321 12 86 4.8 14.5 0.00 0.00 0.00 93 1008.4
20191024003826 12 89 6.4 16.1 0.00 0.00 0.00 92 1008.2
20191024003323 12 82 8.0 16.1 0.00 0.00 0.00 92 1008.3
20191024002820 12 87 8.0 14.5 0.00 0.00 0.00 92 1008.3
20191024002324 12 103 4.8 9.7 0.00 0.00 0.00 92 1008.4
20191024001822 12 97 4.8 14.5 0.00 0.00 0.00 92 1008.5
20191024001322 12 90 6.4 14.5 0.00 0.00 0.00 92 1008.5
20191024000824 12 113 9.7 14.5 0.00 0.00 0.00 92 1008.4
20191024000321 12 75 8.0 16.1 0.00 0.00 0.00 92 1008.2
20191023235820 12 87 9.7 16.1 0.00 0.00 0.00 92 1008.2
20191023235337 12 66 9.7 16.1 0.00 0.00 0.00 92 1008.1
20191023234822 12 65 9.7 11.3 0.00 0.00 0.00 92 1008.1
20191023234032 12 80 6.4 11.3 0.00 0.00 0.00 92 1008.4
20191023233531 12 99 8.0 11.3 0.00 0.00 0.00 92 1008.6
20191023233031 12 121 4.8 9.7 0.00 0.00 0.00 92 1008.7
20191023232531 12 107 4.8 11.3 0.00 0.00 0.00 92 1008.3
20191023232031 12 100 8.0 11.3 0.00 0.00 0.00 92 1008.3
20191023231531 12 92 6.4 9.7 0.00 0.00 0.00 92 1008.4
20191023231032 12 72 4.8 9.7 0.00 0.00 0.00 92 1008.4
20191023230537 12 75 4.8 9.7 0.00 0.00 0.00 92 1008.3
20191023230036 12 79 3.2 8.0 0.00 0.00 0.00 92 1008.4
20191023225534 12 85 4.8 9.7 0.00 0.00 0.00 92 1008.4
20191023225032 12 89 6.4 11.3 0.00 0.00 0.00 92 1008.5
20191023224530 12 92 6.4 11.3 0.00 0.00 0.00 92 1008.4
20191023224031 12 73 6.4 9.7 0.00 0.00 0.00 92 1008.2
20191023223530 12 68 6.4 11.3 0.00 0.00 0.00 92 1008.1
20191023223031 12 54 8.0 11.3 0.00 0.00 0.00 92 1008.2
20191023222531 12 65 6.4 11.3 0.00 0.00 0.00 92 1008.4
20191023222031 12 73 8.0 14.5 0.00 0.00 0.00 92 1008.6
20191023221532 12 65 6.4 14.5 0.00 0.00 0.00 92 1008.6
20191023221038 12 83 8.0 14.5 0.00 0.00 0.00 92 1008.8
20191023220535 12 59 8.0 14.5 0.00 0.00 0.00 92 1008.8
20191023220033 12 76 9.7 17.7 0.00 0.00 0.00 92 1008.8
20191023215531 12 89 6.4 17.7 0.00 0.00 0.00 92 1008.7
20191023215029 12 69 9.7 17.7 0.00 0.00 0.00 92 1009.1
20191023214528 12 93 6.4 16.1 0.00 0.00 0.00 92 1009.2
20191023214030 12 85 8.0 16.1 0.00 0.00 0.00 92 1009.1
20191023213527 12 61 6.4 16.1 0.00 0.00 0.00 92 1008.9
20191023213026 12 68 8.0 17.7 0.00 0.00 0.00 92 1009.0
20191023212534 12 89 8.0 17.7 0.00 0.00 0.00 92 1009.0
20191023212031 12 110 6.4 19.3 0.00 0.00 0.00 92 1009.1
20191023211531 12 128 4.8 19.3 0.00 0.00 0.00 92 1009.2
20191023211027 12 124 11.3 22.5 0.00 0.00 0.00 92 1009.4
20191023210525 12 111 9.7 22.5 0.00 0.00 0.00 92 1009.3
20191023210023 12 90 12.9 20.9 0.00 0.00 0.00 92 1009.0
20191023205522 12 73 6.4 17.7 0.00 0.00 0.00 92 1008.7
20191023205020 12 73 8.0 19.3 0.00 0.00 0.00 92 1008.9
20191023204522 12 78 8.0 19.3 0.00 0.00 0.00 92 1009.2
20191023204020 12 79 8.0 22.5 0.00 0.00 0.00 91 1009.3
20191023203520 12 73 4.8 22.5 0.00 0.00 0.00 91 1009.4
20191023203308 12 85 9.7 19.3 0.00 0.00 0.00 91 1009.3
20191023202528 12 79 9.7 22.5 0.00 0.00 0.00 91 1009.3
20191023202021 12 123 12.9 22.5 0.00 0.00 0.00 91 1009.2
20191023201518 12 86 9.7 19.3 0.00 0.00 0.00 91 1009.2
20191023201016 12 94 11.3 19.3 0.00 0.00 0.00 91 1009.2
20191023200512 12 92 8.0 19.3 0.00 0.00 0.00 91 1009.1
20191023200012 12 68 9.7 19.3 0.00 0.00 0.00 91 1009.2
20191023195513 12 121 9.7 19.3 0.00 0.00 0.00 91 1009.3
20191023195012 12 65 8.0 19.3 0.00 0.00 0.00 91 1009.4
20191023194512 12 116 9.7 19.3 0.00 0.00 0.00 91 1009.5
20191023194304 12 56 9.7 16.1 0.00 0.00 0.00 91 1009.4
20191023193512 12 99 8.0 16.1 0.00 0.00 0.00 91 1009.5
20191023193011 12 82 9.7 19.3 0.00 0.00 0.00 91 1009.4
20191023192524 12 107 8.0 16.1 0.00 0.00 0.00 90 1009.4
20191023192518 12 58 11.3 19.3 0.00 0.00 0.00 90 1009.5
20191023191514 12 79 8.0 16.1 0.00 0.00 0.00 90 1009.7
20191023191012 12 90 8.0 16.1 0.00 0.00 0.00 90 1009.9
20191023190510 12 69 9.7 16.1 0.00 0.00 0.00 90 1009.8
20191023190012 12 72 6.4 14.5 0.00 0.00 0.00 90 1009.9
20191023185510 12 68 8.0 14.5 0.00 0.00 0.00 90 1009.9
20191023185007 12 100 9.7 14.5 0.00 0.00 0.00 90 1010.0
20191023184516 12 103 8.0 11.3 0.00 0.00 0.00 89 1010.2
20191023184012 12 90 6.4 14.5 0.00 0.00 0.00 89 1010.1
20191023183509 12 82 9.7 14.5 0.00 0.00 0.00 92 1010.2
20191023183008 12 89 6.4 17.7 0.00 0.00 0.00 90 1010.2
20191023182508 13 82 6.4 17.7 0.00 0.00 0.00 89 1010.2
20191023182006 13 93 9.7 16.1 0.00 0.00 0.00 89 1010.2
20191023181506 13 65 6.4 14.5 0.00 0.00 0.00 89 1010.2
20191023181005 13 66 8.0 14.5 0.00 0.00 0.00 89 1010.3
20191023180505 13 117 9.7 14.5 0.00 0.00 0.00 89 1010.5
20191023180011 13 128 8.0 20.9 0.00 0.00 0.00 89 1010.3
20191023175511 13 79 9.7 20.9 0.00 0.00 0.00 89 1010.2
20191023175004 13 118 6.4 20.9 0.00 0.00 0.00 89 1010.1
20191023174504 13 80 11.3 20.9 0.00 0.00 0.00 89 1010.2
20191023174006 13 90 9.7 19.3 0.00 0.00 0.00 89 1010.2
20191023173503 13 66 9.7 22.5 0.00 0.00 0.00 88 1010.3
20191023173003 13 78 9.7 22.5 0.00 0.00 0.00 88 1010.3
20191023172502 13 69 9.7 17.7 0.00 0.00 0.00 88 1010.5
20191023172005 13 89 9.7 16.1 0.00 0.00 0.00 88 1010.6
20191023171505 13 41 8.0 16.1 0.00 0.00 0.00 88 1010.8
20191023171010 13 34 9.7 19.3 0.00 0.00 0.00 88 1010.9
20191023170457 13 94 9.7 19.3 0.00 0.00 0.00 87 1010.7
20191023165955 13 82 8.0 17.7 0.00 0.00 0.00 87 1010.8
20191023165456 13 66 6.4 14.5 0.00 0.00 0.00 87 1010.9
20191023164957 13 58 9.7 14.5 0.00 0.00 0.00 87 1011.1
20191023164456 13 65 8.0 14.5 0.00 0.00 0.00 87 1011.2
20191023163956 13 93 6.4 17.7 0.00 0.00 0.00 86 1011.0
20191023163455 13 85 8.0 17.7 0.00 0.00 0.00 86 1011.3
20191023162955 13 30 8.0 17.7 0.00 0.00 0.00 86 1011.3
20191023162456 13 71 11.3 17.7 0.00 0.00 0.00 86 1011.3
20191023161955 13 87 9.7 20.9 0.00 0.00 0.00 85 1011.3
20191023161455 14 48 12.9 20.9 0.00 0.00 0.00 85 1011.2
20191023160954 14 72 9.7 16.1 0.00 0.00 0.00 85 1011.3
20191023160452 14 73 11.3 20.9 0.00 0.00 0.00 85 1011.3
20191023155953 14 58 8.0 20.9 0.00 0.00 0.00 84 1011.3
20191023155455 14 63 9.7 20.9 0.00 0.00 0.00 84 1011.3
20191023154953 14 61 11.3 20.9 0.00 0.00 0.00 84 1011.3
20191023154452 14 39 12.9 19.3 0.00 0.00 0.00 84 1011.5
20191023153953 15 69 8.0 19.3 0.00 0.00 0.00 84 1011.6
20191023153452 15 44 9.7 24.1 0.00 0.00 0.00 84 1011.6
20191023152952 15 38 9.7 24.1 0.00 0.00 0.00 83 1011.5
20191023152452 15 55 9.7 20.9 0.00 0.00 0.00 83 1011.5
20191023151953 15 48 9.7 20.9 0.00 0.00 0.00 83 1011.5
20191023151452 15 55 11.3 20.9 0.00 0.00 0.00 82 1011.7
20191023150954 15 68 11.3 24.1 0.00 0.00 0.00 82 1011.8
20191023150452 15 47 12.9 24.1 0.00 0.00 0.00 82 1011.8
20191023145955 15 93 12.9 22.5 0.00 0.00 0.00 81 1011.9
20191023145454 15 58 11.3 22.5 0.00 0.00 0.00 81 1011.9
20191023144954 15 90 11.3 22.5 0.00 0.00 0.00 81 1012.1
20191023144453 16 63 12.9 22.5 0.00 0.00 0.00 80 1012.1
20191023143952 16 45 9.7 20.9 0.00 0.00 0.00 80 1012.0
20191023143451 16 44 11.3 20.9 0.00 0.00 0.00 80 1012.1
20191023142951 16 65 9.7 20.9 0.00 0.00 0.00 80 1012.1
20191023142450 16 109 9.7 22.5 0.00 0.00 0.00 80 1012.1
20191023141949 16 55 11.3 22.5 0.00 0.00 0.00 80 1012.3
20191023141449 16 85 11.3 22.5 0.00 0.00 0.00 80 1012.2
20191023140949 16 178 8.0 20.9 0.00 0.00 0.00 80 1012.1
20191023140449 16 87 9.7 22.5 0.00 0.00 0.00 80 1012.3
20191023135949 16 80 8.0 25.7 0.00 0.00 0.00 79 1012.4
20191023135449 16 76 11.3 25.7 0.00 0.00 0.00 79 1012.6
20191023134950 16 130 11.3 20.9 0.00 0.00 0.00 80 1012.6
20191023134450 16 86 8.0 20.9 0.00 0.00 0.00 79 1012.6
20191023133950 16 79 11.3 24.1 0.00 0.00 0.00 79 1012.6
20191023133450 16 86 16.1 24.1 0.00 0.00 0.00 79 1012.7
20191023132947 16 72 11.3 22.5 0.00 0.00 0.00 80 1012.7
20191023132447 16 80 11.3 20.9 0.00 0.00 0.00 80 1012.8
20191023131947 16 68 11.3 20.9 0.00 0.00 0.00 80 1013.0
20191023131448 16 68 11.3 19.3 0.00 0.00 0.00 81 1013.1
20191023130945 16 89 6.4 19.3 0.00 0.00 0.00 81 1013.3
20191023130446 16 87 9.7 19.3 0.00 0.00 0.00 81 1013.2
20191023125944 16 124 8.0 25.7 0.00 0.00 0.00 81 1013.4
20191023125444 16 86 9.7 25.7 0.00 0.00 0.00 80 1013.6
20191023124943 16 62 8.0 17.7 0.00 0.00 0.00 80 1013.4
20191023124443 16 86 9.7 22.5 0.00 0.00 0.00 80 1013.6
20191023123943 16 102 9.7 24.1 0.00 0.00 0.00 80 1013.4
20191023123443 16 87 9.7 24.1 0.00 0.00 0.00 80 1013.5
20191023122942 16 49 11.3 27.4 0.00 0.00 0.00 79 1013.5
20191023122443 16 90 16.1 27.4 0.00 0.00 0.00 79 1013.6
20191023121941 16 87 9.7 20.9 0.00 0.00 0.00 79 1013.6
20191023121441 16 85 11.3 20.9 0.00 0.00 0.00 79 1013.7
20191023120940 16 76 9.7 20.9 0.00 0.00 0.00 79 1013.9
20191023120440 16 71 12.9 20.9 0.00 0.00 0.00 79 1014.0
20191023115941 16 93 12.9 20.9 0.00 0.00 0.00 80 1014.1
20191023115439 16 80 11.3 22.5 0.00 0.00 0.00 80 1014.1
20191023114939 16 92 11.3 22.5 0.00 0.00 0.00 80 1014.0
20191023114440 16 82 9.7 22.5 0.00 0.00 0.00 80 1014.2
20191023113938 16 90 6.4 22.5 0.00 0.00 0.00 80 1014.2
20191023113439 16 103 11.3 22.5 0.00 0.00 0.00 79 1014.2
20191023112939 16 96 11.3 22.5 0.00 0.00 0.00 79 1014.3
20191023112434 16 79 12.9 22.5 0.00 0.00 0.00 77 1014.4
20191023111934 16 85 11.3 22.5 0.00 0.00 0.00 77 1014.7
20191023111435 16 86 12.9 22.5 0.00 0.00 0.00 78 1014.7
20191023110933 16 89 11.3 22.5 0.00 0.00 0.00 78 1014.6
20191023110434 16 99 12.9 19.3 0.00 0.00 0.00 77 1014.7
20191023105935 16 61 8.0 17.7 0.00 0.00 0.00 78 1014.7
20191023105434 16 107 11.3 25.7 0.00 0.00 0.00 78 1014.7
20191023104934 16 66 12.9 25.7 0.00 0.00 0.00 77 1014.7
20191023104432 16 86 12.9 20.9 0.00 0.00 0.00 78 1014.7
20191023103931 16 73 9.7 20.9 0.00 0.00 0.00 78 1015.0
20191023103432 16 52 9.7 25.7 0.00 0.00 0.00 78 1015.0
20191023102931 16 82 12.9 25.7 0.00 0.00 0.00 78 1015.1
20191023102429 16 73 12.9 25.7 0.00 0.00 0.00 78 1015.3
20191023101930 16 87 12.9 22.5 0.00 0.00 0.00 79 1015.4
20191023101429 16 93 12.9 20.9 0.00 0.00 0.00 79 1015.4
20191023100929 16 87 6.4 16.1 0.00 0.00 0.00 80 1015.4
20191023100427 15 96 6.4 17.7 0.00 0.00 0.00 80 1015.3
20191023095925 15 94 6.4 17.7 0.00 0.00 0.00 82 1015.7
20191023095427 15 69 8.0 14.5 0.00 0.00 0.00 83 1015.6
20191023094928 15 82 4.8 14.5 0.00 0.00 0.00 85 1015.8
20191023094426 14 87 4.8 11.3 0.00 0.00 0.00 86 1015.9
20191023093925 13 48 6.4 11.3 0.00 0.00 0.00 88 1015.9
20191023093424 13 6 6.4 11.3 0.00 0.00 0.00 89 1015.9
20191023092924 13 69 3.2 9.7 0.00 0.00 0.00 91 1016.1
20191023092422 13 75 6.4 9.7 0.00 0.00 0.00 92 1016.1
20191023091923 12 78 1.6 8.0 0.00 0.00 0.00 93 1016.1
20191023091420 12 78 3.2 8.0 0.00 0.00 0.00 93 1016.3
20191023090919 12 133 4.8 6.4 0.00 0.00 0.00 93 1016.2
20191023090420 12 149 3.2 9.7 0.00 0.00 0.00 94 1016.3
20191023085919 11 63 3.2 9.7 0.00 0.00 0.00 94 1016.2
20191023085420 11 83 4.8 8.0 0.00 0.00 0.00 94 1016.2
20191023084918 11 89 4.8 9.7 0.00 0.00 0.00 94 1016.2
20191023084419 11 54 4.8 16.1 0.00 0.00 0.00 93 1016.3
20191023083917 11 51 8.0 16.1 0.00 0.00 0.00 94 1016.4
20191023083417 11 41 6.4 9.7 0.00 0.00 0.00 93 1016.2
20191023082916 11 82 4.8 9.7 0.00 0.00 0.00 93 1016.3
20191023082418 11 65 4.8 8.0 0.00 0.00 0.00 93 1016.4
20191023081917 11 92 4.8 8.0 0.00 0.00 0.00 93 1016.7
20191023081415 10 45 1.6 9.7 0.00 0.00 0.00 93 1016.7
20191023080913 10 66 6.4 9.7 0.00 0.00 0.00 93 1016.6
20191023080413 10 68 3.2 6.4 0.00 0.00 0.00 93 1016.9
20191023075913 10 49 1.6 4.8 0.00 0.00 0.00 93 1016.9
20191023075414 10 49 3.2 4.8 0.00 0.00 0.00 93 1016.8
20191023074914 10 48 1.6 6.4 0.00 0.00 0.00 93 1017.0
20191023074413 10 47 1.6 6.4 0.00 0.00 0.00 93 1016.9
20191023073913 10 37 3.2 4.8 0.00 0.00 0.00 93 1017.0
20191023073415 10 37 1.6 4.8 0.00 0.00 0.00 92 1017.2
20191023072912 10 37 0.0 4.8 0.00 0.00 0.00 92 1017.1
20191023072411 9 37 1.6 4.8 0.00 0.00 0.00 92 1017.0
20191023071912 9 35 3.2 4.8 0.00 0.00 0.00 92 1017.1
20191023071410 9 18 0.0 1.6 0.00 0.00 0.00 92 1017.1
20191023070908 9 18 0.0 3.2 0.00 0.00 0.00 92 1017.3
20191023070408 9 18 0.0 4.8 0.00 0.00 0.00 92 1017.4
20191023065908 9 18 1.6 4.8 0.00 0.00 0.00 92 1017.5
20191023065406 9 355 0.0 3.2 0.00 0.00 0.00 92 1017.7
20191023064905 9 354 0.0 3.2 0.00 0.00 0.00 92 1017.9
20191023064405 9 355 0.0 3.2 0.00 0.00 0.00 92 1017.6
20191023063859 9 355 1.6 3.2 0.00 0.00 0.00 92 1017.5
20191023063400 9 353 0.0 0.0 0.00 0.00 0.00 92 1017.4
20191023062900 9 353 0.0 3.2 0.00 0.00 0.00 91 1017.3
20191023062400 9 353 0.0 3.2 0.00 0.00 0.00 91 1017.4
20191023061900 9 351 0.0 4.8 0.00 0.00 0.00 91 1017.3
20191023061400 9 351 1.6 4.8 0.00 0.00 0.00 91 1017.3
20191023060900 9 312 0.0 0.0 0.00 0.00 0.00 92 1017.3
20191023060400 10 312 0.0 0.0 0.00 0.00 0.00 92 1017.5
20191023055859 10 312 0.0 0.0 0.00 0.00 0.00 92 1017.6
20191023055358 10 312 0.0 0.0 0.00 0.00 0.00 92 1017.8
20191023054857 10 312 0.0 0.0 0.00 0.00 0.00 92 1017.9
20191023054358 10 312 0.0 0.0 0.00 0.00 0.00 92 1017.8
20191023053856 10 312 0.0 0.0 0.00 0.00 0.00 91 1017.9
20191023053356 10 312 0.0 0.0 0.00 0.00 0.00 91 1018.0
20191023052855 10 312 0.0 0.0 0.00 0.00 0.00 91 1018.0
20191023052356 10 312 0.0 0.0 0.00 0.00 0.00 91 1018.0
20191023051858 10 312 0.0 0.0 0.00 0.00 0.00 91 1017.9
20191023051357 10 312 0.0 0.0 0.00 0.00 0.00 91 1017.9
20191023050856 10 312 0.0 0.0 0.00 0.00 0.00 95 1018.0
20191023050356 10 312 0.0 0.0 0.00 0.00 0.00 91 1018.2
20191023045857 10 312 0.0 0.0 0.00 0.00 0.00 91 1018.1
20191023045355 10 312 0.0 0.0 0.00 0.00 0.00 91 1018.1
20191023044853 10 312 0.0 0.0 0.00 0.00 0.00 91 1018.1
20191023044355 10 312 0.0 0.0 0.00 0.00 0.00 91 1018.0
20191023043851 10 312 0.0 0.0 0.00 0.00 0.00 91 1017.9
20191023043351 10 312 0.0 0.0 0.00 0.00 0.00 91 1018.1